Location: Newark
(43.4306°N, 0.3089°E)
Time: 01:34:01
(UTC+00:00)

S-56A Canister/Altair - Visible Passes

Search period start: 24 August 2019 00:00
Search period end: 03 September 2019 00:00
Orbit: 633 x 2499 km, 38.9° (Epoch: 22 August)

Date Brightness Start Highest point End Pass type
(mag) Time Alt. Az. Time Alt. Az. Time Alt. Az.
24 Aug 8.2 21:04:23 10° WSW 21:07:41 33° SSW 21:07:41 33° SSW visible
25 Aug 7.7 20:31:40 10° SW 20:36:27 38° SSE 20:36:57 37° SSE visible
26 Aug 8.0 19:58:54 10° SW 20:03:58 36° SSE 20:06:09 23° ESE visible
26 Aug 9.5 22:02:40 10° WSW 22:03:35 15° WSW 22:03:35 15° WSW visible
27 Aug 8.3 19:26:04 10° SW 19:31:26 35° SSE 19:35:17 12° E visible
27 Aug 8.6 21:29:58 10° WSW 21:32:43 29° WSW 21:32:43 29° WSW visible
28 Aug 7.6 20:57:11 10° WSW 21:01:49 49° SSW 21:01:49 49° SSW visible
29 Aug 7.6 20:24:19 10° WSW 20:29:43 51° S 20:30:52 41° SE visible
30 Aug 7.8 19:51:21 10° WSW 19:57:11 51° S 19:59:54 23° ESE visible
30 Aug 9.4 21:55:53 10° W 21:57:19 18° WSW 21:57:19 18° WSW visible
31 Aug 8.0 19:18:17 10° WSW 19:24:38 51° S 19:28:55 12° E visible
31 Aug 8.5 21:23:03 10° W 21:26:20 32° WSW 21:26:20 32° WSW visible
01 Sep 7.7 20:50:08 10° W 20:55:19 46° SSW 20:55:19 46° SSW visible
02 Sep 7.8 20:17:08 10° W 20:22:57 50° S 20:24:19 39° SE visible
